AirNav   ProFlight Series 2 Aviation Headset
 
 792 users online  

9PA6 State Police Area Six Heliport
Philadelphia, Pennsylvania, USA

GOING TO PHILADELPHIA?


FAA INFORMATION EFFECTIVE 18 JUNE 2020

Location

FAA Identifier: 9PA6
Lat/Long: 39-59-47.2800N 075-13-05.5400W
39-59.788000N 075-13.092333W
39.9964667,-75.2182056
(estimated)
Elevation: 100 ft. / 30 m (estimated)
Variation: 11W (1985)
Time zone: UTC -4 (UTC -5 during Standard Time)
Zip code: 19072

Heliport Operations

Heliport use: Private use. Permission required prior to landing
Activation date: 04/1973
Control tower: no
ARTCC: NEW YORK CENTER
FSS: WILLIAMSPORT FLIGHT SERVICE STATION
Attendance: CONTINUOUS
Wind indicator: yes
Segmented circle: no

Heliport Communications

WX ASOS at PHL (8 nm S): PHONE 215-492-9617
WX AWOS-3 at LOM (9 nm N): 118.925 (215-646-1068)
WX ASOS at PNE (11 nm NE): 121.15 (215-677-0146)
WX AWOS-3T at OQN (17 nm W): 121.4 ((610) 692-6190)
WX ASOS at VAY (17 nm E): 119.325 (609-267-1176)

Nearby radio navigation aids

VOR radial/distance  VOR name  Freq  Var
PTWr140/20.7POTTSTOWN VORTAC116.5009W
ARDr233/21.0YARDLEY VOR/DME108.2010W
MXEr086/21.3MODENA VORTAC113.2009W
OODr020/22.0WOODSTOWN VORTAC112.8010W
DQOr053/26.2DUPONT VORTAC114.0010W
GXUr280/28.6MC GUIRE VORTAC110.6012W
VCNr347/29.9CEDAR LAKE VOR/DME115.2010W
RBVr260/35.4ROBBINSVILLE VORTAC113.8010W
CYNr297/37.8COYLE VORTAC113.4010W

 
NDB name  Hdg/Dist  Freq  Var  ID
AMBLER170/8.427512WING .. -. --.
RAINBOW005/34.936311WRNB .-. -. -...

Heliport Services

Airframe service: NONE
Powerplant service: NONE

Runway Information

Helipad H1

Dimensions: 100 x 100 ft. / 30 x 30 m
Surface: turf
Traffic pattern: leftleft

Heliport Ownership and Management from official FAA records

Ownership: Publicly-owned
Owner: PA STATE POLICE
2201 BELMONT AVE
PHILADELPHIA, PA 19131
Phone 215-560-6200
Manager: CAPTAIN TODD JOHNSON
171 E. HERSHEY PARK DR
HERSHEY, PA 17033
Phone 610-378-4450
CAPTAIN WILLIAM W ARNOT 717-508-0033.

Additional Remarks

HELI LCE
FOR CD CTC PHILADELPHIA APCH AT 800-354-9884.

Instrument Procedures

There are no published instrument procedures at 9PA6.

Some nearby airports with instrument procedures:

KPHL - Philadelphia International Airport (8 nm S)
KLOM - Wings Field Airport (9 nm N)
KPNE - Northeast Philadelphia Airport (11 nm NE)
N10 - Perkiomen Valley Airport (16 nm NW)
KOQN - Brandywine Regional Airport (17 nm W)
KVAY - South Jersey Regional Airport (17 nm E)
7N7 - Spitfire Aerodrome (18 nm SW)
19N - Camden County Airport (18 nm SE)
N14 - Flying W Airport (19 nm E)
17N - Cross Keys Airport (19 nm SE)
 
Loc | Ops | Rwys | IFR | FBO | Links
Com | Nav | Svcs | Stats | Notes
Area around 9PA6 (State Police Area Six Heliport)
 
Road maps at: MapQuest Bing Google
 
Aerial photo
No photo
 
Sectional chart

 
Airport distance calculator
Flying to State Police Area Six Heliport? Find the distance to fly.

From to 9PA6

Sunrise and sunset
Times for 05-Jul-2020
 Local
(UTC-4)
 Zulu
(UTC)
Morning civil twilight05:0709:07
Sunrise05:3909:39
Sunset20:3200:32
Evening civil twilight21:0401:04

Current date and time
Zulu (UTC)  06-Jul-2020 03:06:34
Local (UTC-4)  05-Jul-2020 23:06:34
 
METAR
KPHL 
8nm S 
060254Z 26006KT 10SM SCT280 28/23 A2997 RMK AO2 SLP147 T02780228 51015
KLOM 
9nm N 
060255Z AUTO 25003KT 10SM CLR 27/20 A2998 RMK AO2 T02650197
KPNE 
11nm NE 
060254Z AUTO 25008KT 10SM CLR 29/21 A2997 RMK AO2 SLP149 T02940206 51015
KOQN 
17nm W 
060255Z AUTO 24004KT 10SM CLR 26/20 A2999 RMK AO2
KVAY 
18nm E 
ASOS 119.325 609-267-1176
060254Z AUTO 19003KT 10SM CLR 26/22 A2996 RMK AO2 SLP145 T02560222 51015 $
TAF
KPHL 
8nm S 
052301Z 0523/0624 24007KT P6SM SCT080 FM061400 24006KT P6SM SCT030 FM061600 22008KT P6SM BKN060 FM062100 21008KT P6SM SHRA BKN060
KPNE 
11nm NE 
051721Z 0518/0618 29008KT P6SM SCT060 FM060000 25004KT P6SM SCT250 FM060400 VRB03KT P6SM SCT250 FM061400 24004KT P6SM SCT030 FM061700 23006KT P6SM BKN060
NOTAMs
Click for the latest NOTAMs
NOTAMs are issued by the DoD/FAA and will open in a separate window not controlled by AirNav.

 

 
 

Would you like to see your business listed on this page?

 If your business provides an interesting product or service to pilots, flight crews, aircraft, or users of the State Police Area Six Heliport, you should consider listing it here.  To start the listing process, click on the button below
 
Add a business
 

Other Pages about State Police Area Six Heliport

Update a link
 
Copyright © AirNav, LLC. All rights reserved. Privacy Policy  Contact